Regional Weather Roundup
Issued by NWS

Home | Current Version | Previous Version | Graphics & Text | Print | Product List | Glossary On
Versions: 1 2 3 4 5 6 7 8 9 10 11 12 13 14 15 16 17 18 19 20 21 22 23 24 25 26 27 28 29 30 31 32 33 34 35 36 37 38 39 40 41 42 43 44 45 46 47 48 49 50
000
ASUS43 KDMX 161601
RWRIA

WEATHER ROUNDUP FOR IOWA
NATIONAL WEATHER SERVICE DES MOINES IA
1000 AM CST SAT DEC 16 2017

NOTE: "FAIR" INDICATES FEW OR NO CLOUDS BELOW 12,000 FEET WITH NO
SIGNIFICANT WEATHER AND/OR OBSTRUCTIONS TO VISIBILITY.

* - THESE STATIONS ARE NOT NWS STATIONS...THUS NOT UNDER NWS
QUALITY CONTROL.  THEY ALSO DO NOT REPORT WEATHER SUCH
AS PRECIPITATION OR FOG.

IAZ001>003-012>014-020>022-031>034-043>046-161700-
   NORTHWEST IOWA

CITY           SKY/WX    TMP DP  RH WIND       PRES   REMARKS
CARROLL *      SUNNY     41  25  52 W10       29.80R
CHEROKEE *     CLOUDY    36  29  74 CALM      29.83R
DENISON *      SUNNY     39  25  56 W5        29.83R
LE MARS *      CLOUDY    41  28  60 N7        29.84R
ORANGE CITY *  CLOUDY    37  30  75 NW7       29.82R WCI  32
SHELDON *      CLOUDY    34  28  80 N9        29.80R WCI  26
SIOUX CITY     CLOUDY    38  27  64 NW9       29.83R WCI  31
SPENCER        CLOUDY    36  28  73 NW7       29.81R WCI  30
STORM LAKE *   SUNNY     37  27  65 NW10      29.81R WCI  30
$$

IAZ055>058-069>071-079>083-090>094-161700-
   SOUTHWEST IOWA

CITY           SKY/WX    TMP DP  RH WIND       PRES   REMARKS
ATLANTIC *     SUNNY     37  25  60 SW9       29.81S WCI  31
AUDUBON *      SUNNY     39  27  60 CALM      29.81R
CLARINDA *     SUNNY     41  28  60 SW8         N/A
COUNCIL BLFS * SUNNY     39  23  52 SW5       29.81R
CRESTON *      SUNNY     43  27  52 SW13      29.83R
HARLAN  *      SUNNY     36  27  69 CALM      29.85R
LAMONI         SUNNY     41  26  55 SW14      29.84R
RED OAK *      SUNNY     41  27  56 S7        29.82S
SHENANDOAH *   SUNNY     43  27  52 SW10      29.84R
$$

IAZ047>049-059>061-072>074-084-161700-
   CENTRAL IOWA

CITY           SKY/WX    TMP DP  RH WIND       PRES   REMARKS
AMES           SUNNY     41  26  55 NW5       29.80R
ANKENY *       SUNNY     41  25  52 SW8       29.83R
BOONE *        SUNNY     41  23  48 W7        29.79R
CHARITON *     SUNNY     43  27  52 SW12      29.83R
DES MOINES     MOSUNNY   42  25  50 SW10      29.82R
GRINNELL*      SUNNY     39  27  62 SW12      29.82R WCI  32
KNOXVILLE *    SUNNY     43  25  49 SW12G17   29.82R
MARSHALLTOWN   SUNNY     40  26  57 W9        29.79R WCI  34
NEWTON *       SUNNY     39  27  60 SW9       29.82R WCI  33
PELLA *        SUNNY     42  27  54 SW8       29.84R
PERRY *          N/A     40  23  49 W6        29.81R
$$

IAZ004>006-015-016-023>025-035-036-161700-
   NORTH CENTRAL IOWA

CITY           SKY/WX    TMP DP  RH WIND       PRES   REMARKS
ALGONA *       CLOUDY    41  30  65 N12       29.80R
CLARION *      CLOUDY    36  27  69 NW7       29.80R WCI  30
ESTHERVILLE    CLOUDY    35  28  75 NW9       29.80R WCI  28
FORT DODGE *   SUNNY     38  25  59 W6        29.81R WCI  33
MASON CITY     CLOUDY    38  26  62 NW7       29.79R WCI  33
FOREST CITY *    N/A     37  30  75 NW6       29.79R WCI  33
WEBSTER CITY * SUNNY     39  25  56 W9        29.79R WCI  33
IOWA FALLS *     N/A     39  26  58 W9        29.80R WCI  33
$$

IAZ007>011-017>019-026>030-037>042-050>054-066-161700-
   NORTHEAST IOWA

CITY           SKY/WX    TMP DP  RH WIND       PRES   REMARKS
CEDAR RAPIDS   SUNNY     40  27  59 SW13      29.81R WCI  32
CHARLES CITY * CLOUDY    34  25  69 CALM      29.79R
CLINTON *      SUNNY     42  27  55 SW13      29.85R
DECORAH *      SUNNY     32  25  74 CALM      29.79R
DUBUQUE        SUNNY     34  25  69 SW5       29.83R WCI  30
MONTICELLO *   SUNNY     39  27  60 VRB3      29.82R
OELWEIN *      SUNNY     36  27  69 W8        29.81R WCI  29
WATERLOO       SUNNY     38  24  57 W7        29.81R WCI  33
$$

IAZ064-065-067-068-078-161700-
   EAST CENTRAL IOWA

CITY           SKY/WX    TMP DP  RH WIND       PRES   REMARKS
DAVENPORT      SUNNY     41  26  55 SW14      29.87R
IOWA CITY      SUNNY     41  27  57 S8        29.86R
MT. PLEASANT * SUNNY     42  26  52 SW15      29.87R
MUSCATINE *    SUNNY     43  25  49 SW13G20   29.87R
QUAD CITIES    SUNNY     42  26  53 SW12      29.86R
$$

IAZ062-063-075>077-085>089-095>099-161700-
   SOUTHEAST IOWA

CITY           SKY/WX    TMP DP  RH WIND       PRES   REMARKS
BURLINGTON     SUNNY     41  27  57 SW14      29.87R
FAIRFIELD *    SUNNY     43  25  49 SW12G17   29.84R
FORT MADISON * SUNNY     41  27  56 SW10      29.88R
KEOKUK *       SUNNY     43  27  52 SW14      29.89R
OSKALOOSA *      N/A     43  27  53 SW14      29.84R
OTTUMWA        SUNNY     44  25  47 SW12      29.84R
WASHINGTON *   SUNNY     43  27  52 SW15G21   29.86R
$$

ABBREVIATIONS USED IN REMARKS
   TC - TEMPERATURES IN CELSIUS
  WCI - WIND CHILL INDEX
   HX - HEAT INDEX
  VSB - VISIBILITY
$$





USA.gov is the U.S. government's official web portal to all federal, state and local government web resources and services.